Time,TemperatureF,DewpointF,PressureIn,WindDirection,WindDirectionDegrees,WindSpeedMPH,WindSpeedGustMPH,Humidity,HourlyPrecipIn,Conditions,Clouds,dailyrainin,SoftwareType,DateUTC
2013-06-17 00:01:00,67.0,53.9,29.40,SW,225,3.1,3.1,63,0.00,,,0.00,WUHU216HW,2013-06-17 05:01:00,
2013-06-17 00:06:00,67.0,54.4,29.40,WSW,248,1.6,3.1,64,0.00,,,0.00,WUHU216HW,2013-06-17 05:06:00,
2013-06-17 00:11:00,66.8,54.2,29.40,WSW,248,1.8,3.1,64,0.00,,,0.00,WUHU216HW,2013-06-17 05:11:00,
2013-06-17 00:16:00,66.6,54.0,29.40,SW,225,1.3,2.2,64,0.00,,,0.00,WUHU216HW,2013-06-17 05:16:00,
2013-06-17 00:21:00,66.6,54.0,29.40,SW,225,1.3,2.2,64,0.00,,,0.00,WUHU216HW,2013-06-17 05:21:00,
2013-06-17 00:26:00,66.4,53.8,29.40,WSW,248,0.0,1.3,64,0.00,,,0.00,WUHU216HW,2013-06-17 05:26:00,
2013-06-17 00:31:00,65.9,54.2,29.41,NE,45,2.2,3.4,66,0.00,,,0.00,WUHU216HW,2013-06-17 05:31:00,
2013-06-17 00:36:00,65.5,54.3,29.42,NW,315,2.5,3.4,67,0.00,,,0.00,WUHU216HW,2013-06-17 05:36:00,
2013-06-17 00:41:00,65.0,54.6,29.42,NW,315,2.5,2.5,69,0.00,,,0.00,WUHU216HW,2013-06-17 05:41:00,
2013-06-17 00:46:00,65.2,54.7,29.42,NNE,23,1.3,2.5,69,0.00,,,0.00,WUHU216HW,2013-06-17 05:46:00,
2013-06-17 00:51:00,65.2,54.4,29.43,NNE,23,0.0,1.8,68,0.00,,,0.00,WUHU216HW,2013-06-17 05:51:00,
2013-06-17 00:56:00,65.3,54.6,29.42,NNE,23,0.0,1.3,68,0.00,,,0.00,WUHU216HW,2013-06-17 05:56:00,
2013-06-17 01:01:00,65.5,54.3,29.42,NNE,23,0.0,0.0,67,0.00,,,0.00,WUHU216HW,2013-06-17 06:01:00,
2013-06-17 01:06:00,65.5,54.6,29.43,South,180,1.1,1.6,68,0.00,,,0.00,WUHU216HW,2013-06-17 06:06:00,
2013-06-17 01:11:00,65.3,54.1,29.42,SSW,203,0.2,1.6,67,0.00,,,0.00,WUHU216HW,2013-06-17 06:11:00,
2013-06-17 01:16:00,65.2,54.4,29.42,NNW,338,0.7,3.1,68,0.00,,,0.00,WUHU216HW,2013-06-17 06:16:00,
2013-06-17 01:21:00,65.0,54.2,29.42,North,0,1.8,3.1,68,0.00,,,0.00,WUHU216HW,2013-06-17 06:21:00,
2013-06-17 01:26:00,64.8,54.0,29.42,North,0,1.1,1.8,68,0.00,,,0.00,WUHU216HW,2013-06-17 06:26:00,
2013-06-17 01:31:00,64.8,54.0,29.42,South,180,0.7,1.8,68,0.00,,,0.00,WUHU216HW,2013-06-17 06:31:00,
2013-06-17 01:36:00,64.6,54.7,29.42,ENE,68,0.9,1.1,70,0.00,,,0.00,WUHU216HW,2013-06-17 06:36:00,
2013-06-17 01:41:00,64.4,54.5,29.42,South,180,0.4,0.9,70,0.00,,,0.00,WUHU216HW,2013-06-17 06:41:00,
2013-06-17 01:46:00,64.3,54.4,29.42,East,90,0.4,0.9,70,0.00,,,0.00,WUHU216HW,2013-06-17 06:46:00,
2013-06-17 01:51:00,64.3,54.4,29.41,East,90,0.4,0.4,70,0.00,,,0.00,WUHU216HW,2013-06-17 06:51:00,
2013-06-17 01:56:00,64.3,54.4,29.41,ENE,68,1.1,1.1,70,0.00,,,0.00,WUHU216HW,2013-06-17 06:56:00,
2013-06-17 02:01:00,64.1,54.5,29.40,ENE,68,0.0,1.1,71,0.00,,,0.00,WUHU216HW,2013-06-17 07:01:00,
2013-06-17 02:06:00,63.9,54.4,29.40,ENE,68,0.7,1.1,71,0.00,,,0.00,WUHU216HW,2013-06-17 07:06:00,
2013-06-17 02:11:00,63.7,55.3,29.40,SSW,203,1.1,1.1,74,0.00,,,0.00,WUHU216HW,2013-06-17 07:11:00,
2013-06-17 02:16:00,63.5,54.7,29.40,SSW,203,0.4,1.1,73,0.00,,,0.00,WUHU216HW,2013-06-17 07:16:00,
2013-06-17 02:21:00,63.4,54.5,29.40,SSW,203,0.0,1.1,73,0.00,,,0.00,WUHU216HW,2013-06-17 07:21:00,
2013-06-17 02:26:00,63.4,54.5,29.40,SSW,203,0.0,0.4,73,0.00,,,0.00,WUHU216HW,2013-06-17 07:26:00,
2013-06-17 02:31:00,63.2,54.4,29.40,SSW,203,0.0,0.0,73,0.00,,,0.00,WUHU216HW,2013-06-17 07:31:00,
2013-06-17 02:36:00,63.0,54.2,29.40,SSW,203,0.4,0.4,73,0.00,,,0.00,WUHU216HW,2013-06-17 07:36:00,
2013-06-17 02:41:00,63.0,54.5,29.40,SSW,203,0.4,0.4,74,0.00,,,0.00,WUHU216HW,2013-06-17 07:41:00,
2013-06-17 02:46:00,62.3,53.8,29.40,SSW,203,1.6,1.6,74,0.00,,,0.00,WUHU216HW,2013-06-17 07:46:00,
2013-06-17 02:51:00,62.1,53.4,29.41,SSW,203,1.1,1.6,73,0.00,,,0.00,WUHU216HW,2013-06-17 07:51:00,
2013-06-17 02:56:00,62.1,53.7,29.40,SSW,203,0.0,1.6,74,0.00,,,0.00,WUHU216HW,2013-06-17 07:56:00,
2013-06-17 03:01:00,61.9,53.2,29.40,SSW,203,0.9,1.1,73,0.00,,,0.00,WUHU216HW,2013-06-17 08:01:00,
2013-06-17 03:06:00,61.9,53.6,29.40,SSW,203,0.4,0.9,74,0.00,,,0.00,WUHU216HW,2013-06-17 08:06:00,
2013-06-17 03:11:00,61.7,53.4,29.41,SSW,203,0.9,0.9,74,0.00,,,0.00,WUHU216HW,2013-06-17 08:11:00,
2013-06-17 03:16:00,61.9,53.9,29.41,SSW,203,1.3,1.3,75,0.00,,,0.00,WUHU216HW,2013-06-17 08:16:00,
2013-06-17 03:21:00,61.9,53.6,29.41,SSW,203,0.4,1.3,74,0.00,,,0.00,WUHU216HW,2013-06-17 08:21:00,
2013-06-17 03:26:00,61.9,53.6,29.40,SSW,203,0.7,1.3,74,0.00,,,0.00,WUHU216HW,2013-06-17 08:26:00,
2013-06-17 03:31:00,62.1,54.1,29.40,SSW,203,0.0,0.7,75,0.00,,,0.00,WUHU216HW,2013-06-17 08:31:00,
2013-06-17 03:36:00,62.3,54.2,29.41,SSE,158,0.7,0.7,75,0.00,,,0.00,WUHU216HW,2013-06-17 08:36:00,
2013-06-17 03:41:00,62.3,54.2,29.41,SSE,158,0.0,0.7,75,0.00,,,0.00,WUHU216HW,2013-06-17 08:41:00,
2013-06-17 03:46:00,62.1,54.1,29.40,ESE,113,1.1,1.1,75,0.00,,,0.00,WUHU216HW,2013-06-17 08:46:00,
2013-06-17 03:51:00,61.9,54.3,29.40,ESE,113,1.1,1.1,76,0.00,,,0.00,WUHU216HW,2013-06-17 08:51:00,
2013-06-17 03:56:00,61.6,53.9,29.40,East,90,0.4,1.1,76,0.00,,,0.00,WUHU216HW,2013-06-17 08:56:00,
2013-06-17 04:01:00,61.2,53.7,29.40,East,90,0.4,1.1,76,0.00,,,0.00,WUHU216HW,2013-06-17 09:01:00,
2013-06-17 04:06:00,61.2,53.7,29.40,East,90,0.7,0.7,76,0.00,,,0.00,WUHU216HW,2013-06-17 09:06:00,
2013-06-17 04:11:00,61.4,54.1,29.40,East,90,0.0,0.7,77,0.00,,,0.00,WUHU216HW,2013-06-17 09:11:00,
2013-06-17 04:16:00,61.4,54.1,29.40,East,90,0.0,0.7,77,0.00,,,0.00,WUHU216HW,2013-06-17 09:16:00,
2013-06-17 04:21:00,61.4,54.1,29.40,East,90,0.4,0.4,77,0.00,,,0.00,WUHU216HW,2013-06-17 09:21:00,
2013-06-17 04:26:00,61.6,54.3,29.40,East,90,1.1,1.1,77,0.00,,,0.00,WUHU216HW,2013-06-17 09:26:00,
2013-06-17 04:31:00,61.6,54.3,29.40,SSE,158,1.1,1.1,77,0.00,,,0.00,WUHU216HW,2013-06-17 09:31:00,
2013-06-17 04:36:00,61.4,54.5,29.40,SSE,158,0.7,1.6,78,0.00,,,0.00,WUHU216HW,2013-06-17 09:36:00,
2013-06-17 04:41:00,61.6,55.0,29.40,SSE,158,1.1,1.6,79,0.00,,,0.00,WUHU216HW,2013-06-17 09:41:00,
2013-06-17 04:46:00,61.6,55.0,29.40,SSW,203,1.1,1.1,79,0.00,,,0.00,WUHU216HW,2013-06-17 09:46:00,
2013-06-17 04:51:00,61.6,55.0,29.41,SSW,203,0.4,1.1,79,0.00,,,0.00,WUHU216HW,2013-06-17 09:51:00,
2013-06-17 04:56:00,61.7,55.2,29.40,South,180,0.2,1.1,79,0.00,,,0.00,WUHU216HW,2013-06-17 09:56:00,
2013-06-17 05:01:00,61.6,55.0,29.40,ESE,113,0.9,0.9,79,0.00,,,0.00,WUHU216HW,2013-06-17 10:01:00,
2013-06-17 05:06:00,61.6,55.0,29.41,ESE,113,0.0,0.9,79,0.00,,,0.00,WUHU216HW,2013-06-17 10:06:00,
2013-06-17 05:11:00,61.6,55.0,29.40,ESE,113,0.0,0.9,79,0.00,,,0.00,WUHU216HW,2013-06-17 10:11:00,
2013-06-17 05:16:00,61.6,55.0,29.40,ESE,113,0.7,0.7,79,0.00,,,0.00,WUHU216HW,2013-06-17 10:16:00,
2013-06-17 05:21:00,61.6,55.4,29.40,SE,135,1.1,1.1,80,0.00,,,0.00,WUHU216HW,2013-06-17 10:21:00,
2013-06-17 05:26:00,61.6,55.0,29.41,SSE,158,1.1,1.1,79,0.00,,,0.00,WUHU216HW,2013-06-17 10:26:00,
2013-06-17 05:31:00,61.2,55.4,29.42,WNW,293,1.1,1.1,81,0.00,,,0.00,WUHU216HW,2013-06-17 10:31:00,
2013-06-17 05:36:00,61.2,55.4,29.41,NW,315,0.0,1.1,81,0.00,,,0.00,WUHU216HW,2013-06-17 10:36:00,
2013-06-17 05:41:00,61.0,55.2,29.41,NW,315,0.0,1.1,81,0.00,,,0.00,WUHU216HW,2013-06-17 10:41:00,
2013-06-17 05:46:00,61.0,55.2,29.41,NW,315,0.0,0.9,81,0.00,,,0.00,WUHU216HW,2013-06-17 10:46:00,
2013-06-17 05:51:00,61.2,55.4,29.41,ENE,68,0.4,1.1,81,0.00,,,0.00,WUHU216HW,2013-06-17 10:51:00,
2013-06-17 05:56:00,61.4,55.5,29.40,SSE,158,1.8,1.8,81,0.00,,,0.00,WUHU216HW,2013-06-17 10:56:00,
2013-06-17 06:01:00,61.4,55.5,29.39,SSW,203,1.6,1.8,81,0.00,,,0.00,WUHU216HW,2013-06-17 11:01:00,
2013-06-17 06:06:00,61.2,55.7,29.40,SSW,203,2.9,3.4,82,0.00,,,0.00,WUHU216HW,2013-06-17 11:06:00,
2013-06-17 06:11:00,61.2,55.7,29.39,SSW,203,1.8,3.4,82,0.00,,,0.00,WUHU216HW,2013-06-17 11:11:00,
2013-06-17 06:16:00,61.2,56.1,29.40,SSW,203,0.7,2.9,83,0.00,,,0.00,WUHU216HW,2013-06-17 11:16:00,
2013-06-17 06:21:00,60.8,55.7,29.40,SW,225,1.1,2.2,83,0.00,,,0.00,WUHU216HW,2013-06-17 11:21:00,
2013-06-17 06:26:00,60.8,55.4,29.39,SSW,203,1.3,1.8,82,0.00,,,0.00,WUHU216HW,2013-06-17 11:26:00,
2013-06-17 06:31:00,61.0,56.2,29.39,SSW,203,0.9,2.9,84,0.00,,,0.00,WUHU216HW,2013-06-17 11:31:00,
2013-06-17 06:36:00,61.2,56.1,29.39,SSW,203,0.9,2.9,83,0.00,,,0.00,WUHU216HW,2013-06-17 11:36:00,
2013-06-17 06:41:00,61.4,56.5,29.40,SSW,203,3.1,3.1,84,0.00,,,0.00,WUHU216HW,2013-06-17 11:41:00,
2013-06-17 06:46:00,61.7,56.5,29.40,SSW,203,1.6,3.1,83,0.00,,,0.00,WUHU216HW,2013-06-17 11:46:00,
2013-06-17 06:51:00,62.1,56.9,29.40,SSW,203,2.5,3.1,83,0.00,,,0.00,WUHU216HW,2013-06-17 11:51:00,
2013-06-17 06:56:00,62.3,56.3,29.40,SSW,203,1.1,2.5,81,0.00,,,0.00,WUHU216HW,2013-06-17 11:56:00,
2013-06-17 07:01:00,63.0,57.1,29.40,SSW,203,0.4,2.5,81,0.00,,,0.00,WUHU216HW,2013-06-17 12:01:00,
2013-06-17 07:06:00,64.4,58.5,29.40,SSW,203,0.4,1.1,81,0.00,,,0.00,WUHU216HW,2013-06-17 12:06:00,
2013-06-17 07:11:00,64.8,58.5,29.40,SSW,203,0.9,0.9,80,0.00,,,0.00,WUHU216HW,2013-06-17 12:11:00,
2013-06-17 07:16:00,65.3,59.0,29.40,SSW,203,0.0,0.9,80,0.00,,,0.00,WUHU216HW,2013-06-17 12:16:00,
2013-06-17 07:21:00,66.4,59.4,29.40,SSW,203,1.1,1.1,78,0.00,,,0.00,WUHU216HW,2013-06-17 12:21:00,
2013-06-17 07:26:00,66.6,59.1,29.40,SSW,203,0.9,1.1,77,0.00,,,0.00,WUHU216HW,2013-06-17 12:26:00,
2013-06-17 07:31:00,67.0,59.5,29.40,SSW,203,1.6,1.6,77,0.00,,,0.00,WUHU216HW,2013-06-17 12:31:00,
2013-06-17 07:36:00,67.3,59.5,29.40,SSW,203,2.5,2.5,76,0.00,,,0.00,WUHU216HW,2013-06-17 12:36:00,
2013-06-17 07:41:00,68.0,60.2,29.40,SSW,203,2.5,2.5,76,0.00,,,0.00,WUHU216HW,2013-06-17 12:41:00,
2013-06-17 07:46:00,68.2,60.0,29.40,SSW,203,2.7,2.7,75,0.00,,,0.00,WUHU216HW,2013-06-17 12:46:00,
2013-06-17 07:51:00,68.6,59.9,29.40,SW,225,5.1,5.1,74,0.00,,,0.00,WUHU216HW,2013-06-17 12:51:00,
2013-06-17 07:56:00,68.8,59.8,29.41,SSW,203,4.7,5.1,73,0.00,,,0.00,WUHU216HW,2013-06-17 12:56:00,
2013-06-17 08:01:00,68.9,60.3,29.41,SSW,203,4.0,5.1,74,0.00,,,0.00,WUHU216HW,2013-06-17 13:01:00,
2013-06-17 08:06:00,69.5,60.8,29.42,SSW,203,2.9,4.7,74,0.00,,,0.00,WUHU216HW,2013-06-17 13:06:00,
2013-06-17 08:11:00,70.2,61.1,29.42,SSW,203,2.7,5.4,73,0.00,,,0.00,WUHU216HW,2013-06-17 13:11:00,
2013-06-17 08:16:00,70.4,59.7,29.42,SSW,203,3.4,5.4,69,0.00,,,0.00,WUHU216HW,2013-06-17 13:16:00,
2013-06-17 08:21:00,70.2,58.2,29.42,WSW,248,2.5,3.8,66,0.00,,,0.00,WUHU216HW,2013-06-17 13:21:00,
2013-06-17 08:26:00,70.4,58.9,29.42,SW,225,3.4,3.4,67,0.00,,,0.00,WUHU216HW,2013-06-17 13:26:00,
2013-06-17 08:31:00,70.4,60.1,29.42,WSW,248,4.0,4.0,70,0.00,,,0.00,WUHU216HW,2013-06-17 13:31:00,
2013-06-17 08:36:00,70.2,59.9,29.42,SW,225,1.3,4.0,70,0.00,,,0.00,WUHU216HW,2013-06-17 13:36:00,
2013-06-17 08:41:00,70.6,59.9,29.42,SW,225,2.0,4.0,69,0.00,,,0.00,WUHU216HW,2013-06-17 13:41:00,
2013-06-17 08:46:00,70.7,60.5,29.43,SSW,203,2.2,2.2,70,0.00,,,0.00,WUHU216HW,2013-06-17 13:46:00,
2013-06-17 08:51:00,70.9,60.7,29.43,SSW,203,2.9,2.9,70,0.00,,,0.00,WUHU216HW,2013-06-17 13:51:00,
2013-06-17 08:56:00,71.1,60.0,29.43,SSW,203,2.5,3.4,68,0.00,,,0.00,WUHU216HW,2013-06-17 13:56:00,
2013-06-17 09:01:00,71.3,59.8,29.43,WSW,248,4.0,4.0,67,0.00,,,0.00,WUHU216HW,2013-06-17 14:01:00,
2013-06-17 09:06:00,71.6,59.7,29.43,SSW,203,2.5,4.0,66,0.00,,,0.00,WUHU216HW,2013-06-17 14:06:00,
2013-06-17 09:11:00,71.6,60.1,29.43,SSW,203,4.0,4.0,67,0.00,,,0.00,WUHU216HW,2013-06-17 14:11:00,
2013-06-17 09:16:00,72.2,61.0,29.43,SW,225,1.6,4.0,68,0.00,,,0.00,WUHU216HW,2013-06-17 14:16:00,
2013-06-17 09:21:00,72.5,60.9,29.42,SW,225,4.0,4.0,67,0.00,,,0.00,WUHU216HW,2013-06-17 14:21:00,
2013-06-17 09:26:00,72.7,60.7,29.43,SSW,203,2.0,4.0,66,0.00,,,0.00,WUHU216HW,2013-06-17 14:26:00,
2013-06-17 09:31:00,73.4,61.8,29.42,NW,315,3.4,4.0,67,0.00,,,0.00,WUHU216HW,2013-06-17 14:31:00,
2013-06-17 09:36:00,73.8,61.3,29.42,SW,225,0.9,3.4,65,0.00,,,0.00,WUHU216HW,2013-06-17 14:36:00,
2013-06-17 09:41:00,74.2,62.1,29.42,WSW,248,1.1,3.4,66,0.00,,,0.00,WUHU216HW,2013-06-17 14:41:00,
2013-06-17 09:46:00,74.3,61.8,29.42,SSW,203,1.8,2.5,65,0.00,,,0.00,WUHU216HW,2013-06-17 14:46:00,
2013-06-17 09:51:00,74.3,61.4,29.42,SSW,203,2.0,2.5,64,0.00,,,0.00,WUHU216HW,2013-06-17 14:51:00,
2013-06-17 09:56:00,74.9,62.7,29.42,SSW,203,4.7,4.7,66,0.00,,,0.00,WUHU216HW,2013-06-17 14:56:00,
2013-06-17 10:01:00,75.2,63.1,29.42,WSW,248,1.8,4.7,66,0.00,,,0.00,WUHU216HW,2013-06-17 15:01:00,
2013-06-17 10:06:00,75.6,62.1,29.42,WSW,248,3.4,6.3,63,0.00,,,0.00,WUHU216HW,2013-06-17 15:06:00,
2013-06-17 10:11:00,75.6,62.1,29.41,SSW,203,2.9,6.3,63,0.00,,,0.00,WUHU216HW,2013-06-17 15:11:00,
2013-06-17 10:16:00,76.0,62.9,29.41,WSW,248,1.3,3.4,64,0.00,,,0.00,WUHU216HW,2013-06-17 15:16:00,
2013-06-17 10:21:00,76.5,61.1,29.41,WNW,293,4.3,4.3,59,0.00,,,0.00,WUHU216HW,2013-06-17 15:21:00,
2013-06-17 10:26:00,76.5,61.7,29.41,WSW,248,5.1,5.1,60,0.00,,,0.00,WUHU216HW,2013-06-17 15:26:00,
2013-06-17 10:31:00,76.7,62.6,29.41,WSW,248,3.1,5.1,62,0.00,,,0.00,WUHU216HW,2013-06-17 15:31:00,
2013-06-17 10:36:00,77.0,63.0,29.41,West,270,1.8,5.1,62,0.00,,,0.00,WUHU216HW,2013-06-17 15:36:00,
2013-06-17 10:41:00,77.2,61.3,29.41,West,270,5.4,5.4,58,0.00,,,0.00,WUHU216HW,2013-06-17 15:41:00,
2013-06-17 10:46:00,77.4,61.5,29.41,WSW,248,3.1,5.4,58,0.00,,,0.00,WUHU216HW,2013-06-17 15:46:00,
2013-06-17 10:51:00,77.6,62.1,29.41,WSW,248,1.8,5.4,59,0.00,,,0.00,WUHU216HW,2013-06-17 15:51:00,
2013-06-17 10:56:00,78.1,64.1,29.41,NW,315,2.7,3.1,62,0.00,,,0.00,WUHU216HW,2013-06-17 15:56:00,
2013-06-17 11:01:00,78.3,62.4,29.41,NW,315,5.4,5.4,58,0.00,,,0.00,WUHU216HW,2013-06-17 16:01:00,
2013-06-17 11:06:00,78.5,60.4,29.41,WSW,248,6.9,6.9,54,0.00,,,0.00,WUHU216HW,2013-06-17 16:06:00,
2013-06-17 11:11:00,78.5,60.9,29.41,NW,315,4.0,6.9,55,0.00,,,0.00,WUHU216HW,2013-06-17 16:11:00,
2013-06-17 11:16:00,79.0,61.5,29.41,WNW,293,9.2,9.2,55,0.00,,,0.00,WUHU216HW,2013-06-17 16:16:00,
2013-06-17 11:21:00,79.4,60.8,29.41,WSW,248,3.4,9.2,53,0.00,,,0.00,WUHU216HW,2013-06-17 16:21:00,
2013-06-17 11:26:00,79.6,61.9,29.41,NW,315,5.8,9.2,55,0.00,,,0.00,WUHU216HW,2013-06-17 16:26:00,
2013-06-17 11:31:00,79.6,61.4,29.41,WNW,293,6.9,6.9,54,0.00,,,0.00,WUHU216HW,2013-06-17 16:31:00,
2013-06-17 11:36:00,79.9,61.7,29.41,NW,315,5.4,6.9,54,0.00,,,0.00,WUHU216HW,2013-06-17 16:36:00,
2013-06-17 11:41:00,80.1,61.9,29.41,WNW,293,2.5,6.9,54,0.00,,,0.00,WUHU216HW,2013-06-17 16:41:00,
2013-06-17 11:46:00,80.3,61.0,29.41,WSW,248,1.3,5.4,52,0.00,,,0.00,WUHU216HW,2013-06-17 16:46:00,
2013-06-17 11:51:00,80.3,61.0,29.41,NW,315,6.0,8.1,52,0.00,,,0.00,WUHU216HW,2013-06-17 16:51:00,
2013-06-17 11:56:00,80.5,62.2,29.41,NNW,338,4.9,8.1,54,0.00,,,0.00,WUHU216HW,2013-06-17 16:56:00,
2013-06-17 12:01:00,80.6,61.8,29.41,NNW,338,6.7,6.7,53,0.00,,,0.00,WUHU216HW,2013-06-17 17:01:00,
2013-06-17 12:06:00,80.8,62.6,29.41,North,0,1.3,6.7,54,0.00,,,0.00,WUHU216HW,2013-06-17 17:06:00,
2013-06-17 12:11:00,80.8,62.6,29.41,NW,315,2.2,6.7,54,0.00,,,0.00,WUHU216HW,2013-06-17 17:11:00,
2013-06-17 12:16:00,80.8,60.5,29.41,NW,315,6.7,6.7,50,0.00,,,0.00,WUHU216HW,2013-06-17 17:16:00,
2013-06-17 12:21:00,80.6,60.9,29.41,NNW,338,5.6,6.7,51,0.00,,,0.00,WUHU216HW,2013-06-17 17:21:00,
2013-06-17 12:26:00,80.1,60.3,29.41,North,0,2.9,6.7,51,0.00,,,0.00,WUHU216HW,2013-06-17 17:26:00,
2013-06-17 12:31:00,79.9,60.2,29.41,NNW,338,6.7,6.7,51,0.00,,,0.00,WUHU216HW,2013-06-17 17:31:00,
2013-06-17 12:36:00,80.1,59.9,29.40,North,0,4.0,6.7,50,0.00,,,0.00,WUHU216HW,2013-06-17 17:36:00,
2013-06-17 12:41:00,80.1,60.3,29.41,NW,315,2.9,6.7,51,0.00,,,0.00,WUHU216HW,2013-06-17 17:41:00,
2013-06-17 12:46:00,80.3,60.5,29.41,West,270,1.8,6.3,51,0.00,,,0.00,WUHU216HW,2013-06-17 17:46:00,
2013-06-17 12:51:00,80.8,60.5,29.41,WNW,293,5.4,5.4,50,0.00,,,0.00,WUHU216HW,2013-06-17 17:51:00,
2013-06-17 12:56:00,81.0,60.0,29.41,WNW,293,8.1,10.5,49,0.00,,,0.00,WUHU216HW,2013-06-17 17:56:00,
2013-06-17 13:01:00,81.2,60.2,29.40,WNW,293,9.2,10.5,49,0.00,,,0.00,WUHU216HW,2013-06-17 18:01:00,
2013-06-17 13:06:00,81.4,60.3,29.40,WNW,293,4.7,9.2,49,0.00,,,0.00,WUHU216HW,2013-06-17 18:06:00,
2013-06-17 13:11:00,81.4,59.1,29.40,NNW,338,5.8,9.2,47,0.00,,,0.00,WUHU216HW,2013-06-17 18:11:00,
2013-06-17 13:16:00,81.5,58.1,29.40,NNW,338,4.7,9.2,45,0.00,,,0.00,WUHU216HW,2013-06-17 18:16:00,
2013-06-17 13:21:00,81.7,57.0,29.40,NW,315,4.9,5.8,43,0.00,,,0.00,WUHU216HW,2013-06-17 18:21:00,
2013-06-17 13:26:00,82.1,57.3,29.40,WNW,293,7.4,7.4,43,0.00,,,0.00,WUHU216HW,2013-06-17 18:26:00,
2013-06-17 13:31:00,82.1,58.5,29.40,NW,315,7.6,7.6,45,0.00,,,0.00,WUHU216HW,2013-06-17 18:31:00,
2013-06-17 13:36:00,82.1,56.1,29.40,NNW,338,6.0,7.6,41,0.00,,,0.00,WUHU216HW,2013-06-17 18:36:00,
2013-06-17 13:41:00,82.3,54.8,29.41,NW,315,6.7,7.6,39,0.00,,,0.00,WUHU216HW,2013-06-17 18:41:00,
2013-06-17 13:46:00,82.4,57.1,29.41,NNW,338,3.6,6.7,42,0.00,,,0.00,WUHU216HW,2013-06-17 18:46:00,
2013-06-17 13:51:00,82.4,56.4,29.40,NNE,23,5.4,6.7,41,0.00,,,0.00,WUHU216HW,2013-06-17 18:51:00,
2013-06-17 13:56:00,81.7,55.8,29.41,NW,315,5.4,5.4,41,0.00,,,0.00,WUHU216HW,2013-06-17 18:56:00,
2013-06-17 14:01:00,80.6,55.5,29.41,NW,315,6.9,6.9,42,0.00,,,0.00,WUHU216HW,2013-06-17 19:01:00,
2013-06-17 14:06:00,79.9,56.0,29.41,WNW,293,3.4,6.9,44,0.00,,,0.00,WUHU216HW,2013-06-17 19:06:00,
2013-06-17 14:11:00,80.1,57.3,29.40,NW,315,4.9,6.9,46,0.00,,,0.00,WUHU216HW,2013-06-17 19:11:00,
2013-06-17 14:16:00,80.6,57.9,29.40,WNW,293,3.8,4.9,46,0.00,,,0.00,WUHU216HW,2013-06-17 19:16:00,
2013-06-17 14:21:00,81.2,57.2,29.40,North,0,4.9,4.9,44,0.00,,,0.00,WUHU216HW,2013-06-17 19:21:00,
2013-06-17 14:26:00,81.9,58.4,29.40,West,270,4.5,4.9,45,0.00,,,0.00,WUHU216HW,2013-06-17 19:26:00,
2013-06-17 14:31:00,82.1,57.3,29.40,NW,315,8.7,8.7,43,0.00,,,0.00,WUHU216HW,2013-06-17 19:31:00,
2013-06-17 14:36:00,82.1,57.3,29.40,NW,315,7.8,8.7,43,0.00,,,0.00,WUHU216HW,2013-06-17 19:36:00,
2013-06-17 14:41:00,82.1,56.7,29.40,NNW,338,10.3,10.3,42,0.00,,,0.00,WUHU216HW,2013-06-17 19:41:00,
2013-06-17 14:46:00,82.4,57.1,29.39,SW,225,1.8,10.3,42,0.00,,,0.00,WUHU216HW,2013-06-17 19:46:00,
2013-06-17 14:51:00,81.9,55.9,29.39,NW,315,8.5,8.5,41,0.00,,,0.00,WUHU216HW,2013-06-17 19:51:00,
2013-06-17 14:56:00,81.4,56.1,29.39,NNW,338,5.4,8.5,42,0.00,,,0.00,WUHU216HW,2013-06-17 19:56:00,
2013-06-17 15:01:00,80.8,56.8,29.39,NNW,338,5.8,8.5,44,0.00,,,0.00,WUHU216HW,2013-06-17 20:01:00,
2013-06-17 15:06:00,80.8,56.2,29.39,NW,315,5.1,5.8,43,0.00,,,0.00,WUHU216HW,2013-06-17 20:06:00,
2013-06-17 15:11:00,80.6,54.8,29.39,West,270,6.3,6.3,41,0.00,,,0.00,WUHU216HW,2013-06-17 20:11:00,
2013-06-17 15:16:00,80.3,56.4,29.39,West,270,3.4,6.3,44,0.00,,,0.00,WUHU216HW,2013-06-17 20:16:00,
2013-06-17 15:21:00,80.6,56.6,29.39,WSW,248,7.6,7.6,44,0.00,,,0.00,WUHU216HW,2013-06-17 20:21:00,
2013-06-17 15:26:00,81.0,57.6,29.39,West,270,3.4,7.6,45,0.00,,,0.00,WUHU216HW,2013-06-17 20:26:00,
2013-06-17 15:31:00,81.5,58.1,29.39,NW,315,3.4,7.6,45,0.00,,,0.00,WUHU216HW,2013-06-17 20:31:00,
2013-06-17 15:36:00,81.4,56.1,29.39,NW,315,6.9,6.9,42,0.00,,,0.00,WUHU216HW,2013-06-17 20:36:00,
2013-06-17 15:41:00,80.6,56.6,29.39,West,270,9.2,9.2,44,0.00,,,0.00,WUHU216HW,2013-06-17 20:41:00,
2013-06-17 15:46:00,81.0,55.7,29.39,West,270,4.7,9.2,42,0.00,,,0.00,WUHU216HW,2013-06-17 20:46:00,
2013-06-17 15:51:00,81.4,58.5,29.39,WNW,293,6.5,9.2,46,0.00,,,0.00,WUHU216HW,2013-06-17 20:51:00,
2013-06-17 15:56:00,81.5,56.8,29.39,NW,315,7.6,8.9,43,0.00,,,0.00,WUHU216HW,2013-06-17 20:56:00,
2013-06-17 16:01:00,81.5,57.4,29.38,NNW,338,4.0,8.9,44,0.00,,,0.00,WUHU216HW,2013-06-17 21:01:00,
2013-06-17 16:06:00,81.5,55.6,29.39,NW,315,8.3,8.3,41,0.00,,,0.00,WUHU216HW,2013-06-17 21:06:00,
2013-06-17 16:11:00,81.5,55.6,29.38,NW,315,6.9,11.0,41,0.00,,,0.00,WUHU216HW,2013-06-17 21:11:00,
2013-06-17 16:16:00,81.7,55.2,29.38,West,270,6.0,11.0,40,0.00,,,0.00,WUHU216HW,2013-06-17 21:16:00,
2013-06-17 16:21:00,81.5,55.6,29.38,WSW,248,6.7,9.2,41,0.00,,,0.00,WUHU216HW,2013-06-17 21:21:00,
2013-06-17 16:26:00,81.7,55.8,29.39,NW,315,8.7,9.2,41,0.00,,,0.00,WUHU216HW,2013-06-17 21:26:00,
2013-06-17 16:31:00,81.7,55.8,29.39,North,0,5.8,8.7,41,0.00,,,0.00,WUHU216HW,2013-06-17 21:31:00,
2013-06-17 16:36:00,81.7,55.2,29.39,WNW,293,11.6,11.6,40,0.00,,,0.00,WUHU216HW,2013-06-17 21:36:00,
2013-06-17 16:41:00,81.7,55.2,29.38,WNW,293,12.3,12.3,40,0.00,,,0.00,WUHU216HW,2013-06-17 21:41:00,
2013-06-17 16:46:00,81.4,55.4,29.38,NW,315,4.0,12.3,41,0.00,,,0.00,WUHU216HW,2013-06-17 21:46:00,
2013-06-17 16:51:00,81.0,55.7,29.38,NW,315,13.4,13.4,42,0.00,,,0.00,WUHU216HW,2013-06-17 21:51:00,
2013-06-17 16:56:00,80.8,55.5,29.38,West,270,4.7,13.4,42,0.00,,,0.00,WUHU216HW,2013-06-17 21:56:00,
2013-06-17 17:01:00,80.8,56.2,29.38,NW,315,3.4,13.4,43,0.00,,,0.00,WUHU216HW,2013-06-17 22:01:00,
2013-06-17 17:06:00,81.5,55.0,29.38,NW,315,15.9,15.9,40,0.00,,,0.00,WUHU216HW,2013-06-17 22:06:00,
2013-06-17 17:11:00,81.7,55.2,29.38,NW,315,13.4,15.9,40,0.00,,,0.00,WUHU216HW,2013-06-17 22:11:00,
2013-06-17 17:16:00,81.7,54.4,29.38,West,270,6.3,15.9,39,0.00,,,0.00,WUHU216HW,2013-06-17 22:16:00,
2013-06-17 17:21:00,81.7,57.0,29.39,NE,45,6.3,13.4,43,0.00,,,0.00,WUHU216HW,2013-06-17 22:21:00,
2013-06-17 17:26:00,79.6,60.4,29.39,North,0,11.4,11.4,52,0.00,,,0.00,WUHU216HW,2013-06-17 22:26:00,
2013-06-17 17:31:00,77.4,60.4,29.39,NNE,23,6.0,11.4,56,0.00,,,0.00,WUHU216HW,2013-06-17 22:31:00,
2013-06-17 17:36:00,75.2,60.5,29.40,North,0,5.8,11.4,60,0.00,,,0.00,WUHU216HW,2013-06-17 22:36:00,
2013-06-17 17:41:00,74.5,60.7,29.40,SE,135,6.3,7.8,62,0.00,,,0.00,WUHU216HW,2013-06-17 22:41:00,
2013-06-17 17:46:00,74.0,59.7,29.41,NNE,23,6.9,7.8,61,0.00,,,0.00,WUHU216HW,2013-06-17 22:46:00,
2013-06-17 17:51:00,73.6,60.2,29.41,NE,45,5.1,6.9,63,0.00,,,0.00,WUHU216HW,2013-06-17 22:51:00,
2013-06-17 17:56:00,73.3,60.3,29.42,NNE,23,4.0,6.9,64,0.00,,,0.00,WUHU216HW,2013-06-17 22:56:00,
2013-06-17 18:01:00,72.5,59.7,29.42,NNE,23,5.4,6.5,64,0.00,,,0.00,WUHU216HW,2013-06-17 23:01:00,
2013-06-17 18:06:00,72.0,60.0,29.42,North,0,5.1,9.8,66,0.00,,,0.00,WUHU216HW,2013-06-17 23:06:00,
2013-06-17 18:11:00,71.6,59.7,29.43,North,0,5.8,9.8,66,0.00,,,0.00,WUHU216HW,2013-06-17 23:11:00,
2013-06-17 18:16:00,70.9,59.0,29.43,NNE,23,6.0,8.5,66,0.00,,,0.00,WUHU216HW,2013-06-17 23:16:00,
2013-06-17 18:21:00,70.4,58.9,29.43,NNE,23,8.5,10.7,67,0.00,,,0.00,WUHU216HW,2013-06-17 23:21:00,
2013-06-17 18:26:00,69.8,58.8,29.43,West,270,9.8,11.9,68,0.00,,,0.00,WUHU216HW,2013-06-17 23:26:00,
2013-06-17 18:31:00,69.5,58.4,29.43,North,0,7.6,11.9,68,0.00,,,0.00,WUHU216HW,2013-06-17 23:31:00,
2013-06-17 18:36:00,69.1,58.5,29.43,NNE,23,3.4,10.5,69,0.00,,,0.00,WUHU216HW,2013-06-17 23:36:00,
2013-06-17 18:41:00,68.9,58.3,29.43,North,0,5.1,7.6,69,0.00,,,0.00,WUHU216HW,2013-06-17 23:41:00,
2013-06-17 18:46:00,68.8,58.1,29.43,WNW,293,2.7,6.7,69,0.00,,,0.00,WUHU216HW,2013-06-17 23:46:00,
2013-06-17 18:51:00,68.6,58.4,29.43,NE,45,6.5,7.8,70,0.00,,,0.00,WUHU216HW,2013-06-17 23:51:00,
2013-06-17 18:56:00,68.4,57.9,29.44,SW,225,6.0,9.2,69,0.00,,,0.00,WUHU216HW,2013-06-17 23:56:00,
2013-06-17 19:01:00,68.2,57.2,29.44,North,0,3.1,9.2,68,0.00,,,0.00,WUHU216HW,2013-06-18 00:01:00,
2013-06-17 19:06:00,68.2,57.7,29.44,North,0,5.8,6.0,69,0.00,,,0.00,WUHU216HW,2013-06-18 00:06:00,
2013-06-17 19:11:00,68.0,57.1,29.44,NE,45,4.7,5.8,68,0.00,,,0.00,WUHU216HW,2013-06-18 00:11:00,
2013-06-17 19:16:00,68.2,57.2,29.44,NE,45,4.0,5.8,68,0.00,,,0.00,WUHU216HW,2013-06-18 00:16:00,
2013-06-17 19:21:00,68.0,57.1,29.44,NNE,23,2.0,4.7,68,0.00,,,0.00,WUHU216HW,2013-06-18 00:21:00,
2013-06-17 19:26:00,67.7,56.7,29.44,North,0,2.0,4.5,68,0.00,,,0.00,WUHU216HW,2013-06-18 00:26:00,
2013-06-17 19:31:00,67.7,56.7,29.44,NNE,23,3.6,4.0,68,0.00,,,0.00,WUHU216HW,2013-06-18 00:31:00,
2013-06-17 19:36:00,67.3,57.2,29.44,North,0,2.5,4.0,70,0.00,,,0.00,WUHU216HW,2013-06-18 00:36:00,
2013-06-17 19:41:00,67.1,57.1,29.45,NNE,23,2.2,3.6,70,0.00,,,0.00,WUHU216HW,2013-06-18 00:41:00,
2013-06-17 19:46:00,67.0,56.9,29.45,NNE,23,2.5,2.5,70,0.00,,,0.00,WUHU216HW,2013-06-18 00:46:00,
2013-06-17 19:51:00,66.6,56.9,29.44,NNE,23,2.0,2.5,71,0.00,,,0.00,WUHU216HW,2013-06-18 00:51:00,
2013-06-17 19:56:00,66.2,56.2,29.44,NE,45,1.8,2.5,70,0.00,,,0.00,WUHU216HW,2013-06-18 00:56:00,
2013-06-17 20:01:00,66.1,56.8,29.45,NNE,23,1.3,2.0,72,0.00,,,0.00,WUHU216HW,2013-06-18 01:01:00,
2013-06-17 20:06:00,65.9,57.0,29.45,NE,45,1.1,1.8,73,0.00,,,0.00,WUHU216HW,2013-06-18 01:06:00,
2013-06-17 20:11:00,65.2,56.3,29.45,North,0,2.0,2.7,73,0.00,,,0.00,WUHU216HW,2013-06-18 01:11:00,
2013-06-17 20:16:00,65.0,56.5,29.45,ENE,68,0.4,2.7,74,0.00,,,0.00,WUHU216HW,2013-06-18 01:16:00,
2013-06-17 20:21:00,64.8,56.4,29.45,NNE,23,4.0,4.0,74,0.00,,,0.00,WUHU216HW,2013-06-18 01:21:00,
2013-06-17 20:26:00,64.4,56.0,29.45,NNW,338,2.5,4.0,74,0.00,,,0.00,WUHU216HW,2013-06-18 01:26:00,
2013-06-17 20:31:00,64.4,55.6,29.45,North,0,1.1,4.0,73,0.00,,,0.00,WUHU216HW,2013-06-18 01:31:00,
2013-06-17 20:36:00,64.1,55.6,29.45,NNE,23,2.0,2.5,74,0.00,,,0.00,WUHU216HW,2013-06-18 01:36:00,
2013-06-17 20:41:00,64.1,55.6,29.46,NNE,23,2.2,2.2,74,0.00,,,0.00,WUHU216HW,2013-06-18 01:41:00,
2013-06-17 20:46:00,63.9,55.8,29.46,NNE,23,2.7,2.7,75,0.00,,,0.00,WUHU216HW,2013-06-18 01:46:00,
2013-06-17 20:51:00,63.7,56.0,29.46,NNE,23,3.4,3.4,76,0.00,,,0.00,WUHU216HW,2013-06-18 01:51:00,
2013-06-17 20:56:00,63.4,55.6,29.46,NNE,23,3.1,3.4,76,0.00,,,0.00,WUHU216HW,2013-06-18 01:56:00,
2013-06-17 21:01:00,63.2,55.4,29.46,NNE,23,1.8,3.1,76,0.00,,,0.00,WUHU216HW,2013-06-18 02:01:00,
2013-06-17 21:06:00,63.0,55.3,29.46,NNE,23,2.5,3.1,76,0.00,,,0.00,WUHU216HW,2013-06-18 02:06:00,
2013-06-17 21:11:00,62.6,54.9,29.47,North,0,3.4,4.0,76,0.00,,,0.00,WUHU216HW,2013-06-18 02:11:00,
2013-06-17 21:16:00,62.3,54.9,29.47,NNE,23,4.3,4.3,77,0.00,,,0.00,WUHU216HW,2013-06-18 02:16:00,
2013-06-17 21:21:00,62.1,55.2,29.47,North,0,2.5,4.3,78,0.00,,,0.00,WUHU216HW,2013-06-18 02:21:00,
2013-06-17 21:26:00,61.7,55.2,29.48,North,0,3.4,4.3,79,0.00,,,0.00,WUHU216HW,2013-06-18 02:26:00,
2013-06-17 21:31:00,61.6,54.6,29.48,North,0,3.4,4.0,78,0.00,,,0.00,WUHU216HW,2013-06-18 02:31:00,
2013-06-17 21:36:00,61.4,54.5,29.48,NNE,23,1.8,3.4,78,0.00,,,0.00,WUHU216HW,2013-06-18 02:36:00,
2013-06-17 21:41:00,61.2,54.4,29.49,NNW,338,4.9,4.9,78,0.00,,,0.00,WUHU216HW,2013-06-18 02:41:00,
2013-06-17 21:46:00,61.2,54.7,29.49,ENE,68,2.5,4.9,79,0.00,,,0.00,WUHU216HW,2013-06-18 02:46:00,
2013-06-17 21:51:00,61.2,54.7,29.50,NNE,23,1.3,4.9,79,0.00,,,0.00,WUHU216HW,2013-06-18 02:51:00,
2013-06-17 21:56:00,61.2,54.7,29.50,NNE,23,2.0,2.5,79,0.00,,,0.00,WUHU216HW,2013-06-18 02:56:00,
2013-06-17 22:01:00,60.8,54.4,29.50,North,0,1.3,2.5,79,0.00,,,0.00,WUHU216HW,2013-06-18 03:01:00,
2013-06-17 22:06:00,60.8,54.4,29.50,NE,45,3.4,3.4,79,0.00,,,0.00,WUHU216HW,2013-06-18 03:06:00,
2013-06-17 22:11:00,60.5,54.0,29.50,North,0,4.0,4.0,79,0.00,,,0.00,WUHU216HW,2013-06-18 03:11:00,
2013-06-17 22:16:00,60.1,53.6,29.50,ENE,68,3.4,4.0,79,0.00,,,0.00,WUHU216HW,2013-06-18 03:16:00,
2013-06-17 22:21:00,59.9,53.8,29.50,ENE,68,2.9,4.0,80,0.00,,,0.00,WUHU216HW,2013-06-18 03:21:00,
2013-06-17 22:26:00,59.8,53.6,29.50,North,0,2.0,3.4,80,0.00,,,0.00,WUHU216HW,2013-06-18 03:26:00,
2013-06-17 22:31:00,59.4,52.9,29.51,NE,45,4.5,4.5,79,0.00,,,0.00,WUHU216HW,2013-06-18 03:31:00,
2013-06-17 22:36:00,59.2,53.1,29.51,NNE,23,1.8,4.5,80,0.00,,,0.00,WUHU216HW,2013-06-18 03:36:00,
2013-06-17 22:41:00,59.0,52.9,29.51,ENE,68,4.0,4.5,80,0.00,,,0.00,WUHU216HW,2013-06-18 03:41:00,
2013-06-17 22:46:00,59.0,53.3,29.51,NNW,338,2.5,4.0,81,0.00,,,0.00,WUHU216HW,2013-06-18 03:46:00,
2013-06-17 22:51:00,58.7,52.9,29.51,NE,45,1.6,4.0,81,0.00,,,0.00,WUHU216HW,2013-06-18 03:51:00,
2013-06-17 22:56:00,58.5,52.8,29.51,NNE,23,1.1,2.5,81,0.00,,,0.00,WUHU216HW,2013-06-18 03:56:00,
2013-06-17 23:01:00,58.5,52.8,29.51,NNE,23,2.5,2.5,81,0.00,,,0.00,WUHU216HW,2013-06-18 04:01:00,
2013-06-17 23:06:00,58.1,52.4,29.52,NNE,23,2.2,2.5,81,0.00,,,0.00,WUHU216HW,2013-06-18 04:06:00,
2013-06-17 23:11:00,58.0,52.5,29.51,NNE,23,3.4,3.4,82,0.00,,,0.00,WUHU216HW,2013-06-18 04:11:00,
2013-06-17 23:16:00,57.8,52.7,29.52,ENE,68,4.5,4.5,83,0.00,,,0.00,WUHU216HW,2013-06-18 04:16:00,
2013-06-17 23:21:00,57.8,52.7,29.52,NE,45,1.1,4.5,83,0.00,,,0.00,WUHU216HW,2013-06-18 04:21:00,
2013-06-17 23:26:00,57.6,52.1,29.52,ENE,68,2.2,4.5,82,0.00,,,0.00,WUHU216HW,2013-06-18 04:26:00,
2013-06-17 23:31:00,57.6,52.1,29.52,ENE,68,3.4,3.4,82,0.00,,,0.00,WUHU216HW,2013-06-18 04:31:00,
2013-06-17 23:36:00,57.4,51.9,29.52,North,0,4.5,4.5,82,0.00,,,0.00,WUHU216HW,2013-06-18 04:36:00,
2013-06-17 23:41:00,57.2,51.8,29.51,NE,45,2.5,4.5,82,0.00,,,0.00,WUHU216HW,2013-06-18 04:41:00,
2013-06-17 23:46:00,57.1,51.9,29.52,NNE,23,1.8,4.5,83,0.00,,,0.00,WUHU216HW,2013-06-18 04:46:00,
2013-06-17 23:51:00,56.9,51.4,29.52,NNE,23,2.7,3.8,82,0.00,,,0.00,WUHU216HW,2013-06-18 04:51:00,
2013-06-17 23:56:00,56.9,51.4,29.52,NE,45,3.4,3.4,82,0.00,,,0.00,WUHU216HW,2013-06-18 04:56:00,